STARLINK-1376, 45570

Orbit data source: Space-Track

STARLINK-1376, 45570 is a payload satellite owned by SpaceX/Seattle (US) in LEO that was launched on Wed, 22 Apr 2020 UTC via an FALCON 9 launch vehicle from the Air Force Eastern Test Range (AFETR). Payload-class satellites include a variety of spacecraft equipped with specific instruments for various scientific and technological missions. These include communications satellites like Starlink; space stations such as the ISS; scientific satellites like the Hubble; Earth observation satellites from companies like Planet Labs, Umbra, and HawkEye 360; GPS; miniature CubeSats for education and research; and military/defense satellites.

Loading next visibility...
Identifier
45570, 2020-025AR
Orbit
LEO
Country
Flag of USUS
Related business
Manufacturer
SpaceX/Seattle
Mission
Operational Commercial Communications
Bus & Motor
STARLINK, Unknown motor
Mass
260 kg wet, ~248 kg dry
Launch date (UTC)
2020-04-22 (5 years ago)
Launch vehicle
FALCON 9
Launch site
Air Force Eastern Test Range (AFETR)
Object type
Payload
Rocket body
Debris
Shape & HBR
Box + 1 Pan, 4.4 m
Radar Cross Section
13.562 m², Large (>1 m²)

Expand to show TLE details & history
Last TLE update: 11 hours ago

TLE from 11 hours ago
0 STARLINK-1376
1 45570U 20025AR  25261.05372020  .00000294  00000-0  38633-4 0  9997
2 45570  53.0548 141.6153 0001411 106.9363 253.1780 15.06387546299342
Epoch: 2025-09-18T01:17Z
TLE epoch observation values (Epoch: 2025-09-18T01:17:21.425Z)
Latitude
-0.00007°
Longitude
125.05514°
Altitude
548.412 km
Speed
7.589 km/s
True Right ascension
09h 26m 27s
True Declination
0° 00' 00"
Sunlit
Object was in daylight at epoch
Visualization orbit readout
Latitude
Unknown
Longitude
Unknown
Altitude
Unknown
Speed
Unknown
Apparent Right ascension
Unknown
Apparent Declination
Unknown
Sunlit
N/A
Visualization observer readout
Local Sidereal Time
05:28:21
Azimuth
Unknown
Elevation
Unknown
Doppler factor
Unknown
Orbital elements
Apogee altitude
548.498 km
Perigee altitude
546.543 km
Semi-major axis
6,925.657 km
Eccentricity
0.00014
Inclination
53.0548°
RAAN
141.6153°
Arg. of periapsis
106.9363°
True anomaly
253.16252°
Mean anomaly
253.178°
Eccentric anomaly
253.17026°
Mean motion
3.76575 °/min
Orbital period
95.6 mins
BSTAR
0.000038633
Loading maneuver chart data...
Computing Atmospheric mass density...

Documentation

Showing up to 5 results
|